Regional Weather Roundup
Issued by NWS Jackson, KY

Home | Current Version | Previous Version | Graphics & Text | Print | Product List | Glossary On
Versions: 1 2 3 4 5 6 7 8 9 10 11 12 13 14 15 16 17 18 19 20 21 22 23 24 25 26 27 28 29 30 31 32 33 34 35 36 37 38 39 40 41 42 43 44 45 46 47 48 49 50
000
ASUS43 KJKL 281210
RWRJKL

EAST KENTUCKY HOURLY WEATHER ROUNDUP
NATIONAL WEATHER SERVICE JACKSON KY
800 AM EDT TUE MAR 28 2017

NOTE: "FAIR" INDICATES FEW OR NO CLOUDS BELOW 12,000 FEET WITH
NO SIGNIFICANT WEATHER AND/OR OBSTRUCTIONS TO VISIBILITY.

* THESE REPORTS ARE NOT UNDER NWS QUALITY CONTROL AND MAY NOT
  REPORT WEATHER SUCH AS PRECIPITATION AND FOG.

KYZ079-080-083-085-087-088-110-112-115-119-120-281300
...EASTERN KENTUCKY...

CITY           SKY/WX    TMP DP  RH WIND       PRES   REMARKS
JACKSON        CLOUDY    55  54  96 CALM      29.92R
6HR MIN TEMP:  55; 6HR MAX TEMP:  56;

LONDON         CLOUDY    56  53  90 W5        29.93R
6HR MIN TEMP:  54; 6HR MAX TEMP:  57;

SOMERSET*      CLOUDY    54  54 100 W6        29.95R
MONTICELLO*    CLOUDY    57  55  93 W13       29.96R
6HR MIN TEMP:  51; 6HR MAX TEMP:  58; 6HR PCP: TRACE;

WILLIAMSBURG*  CLOUDY    55  55 100 W3        29.94R
MIDDLESBORO*   CLOUDY    55  55 100 CALM      29.94R
6HR MIN TEMP:  54; 6HR MAX TEMP:  58;

HARLAN APT*    CLOUDY    55  52  88 SW3       29.94R
PIKE CO APT*   CLOUDY    55  55 100 SW3       29.92R
BIG SANDY APT* CLOUDY    56  56  99 CALM      29.92R
6HR MIN TEMP:  55; 6HR MAX TEMP:  57;

MOREHEAD APT*  CLOUDY    55  54  94 VRB6      29.93R
ASHLAND*       CLOUDY    55  54  94 CALM      29.88R VSB 1/4
$$

KYZ035-036-041-042-044-050-067-078-099-281300
...CENTRAL KENTUCKY...

CITY           SKY/WX    TMP DP  RH WIND       PRES   REMARKS
MT STERLING*   CLOUDY    54  54 100 W5        29.93R
FLEMING/MASON* CLOUDY    55  54  97 W6        29.91R
DANVILLE*      CLOUDY    54  52  94 CALM      29.94R
LEXINGTON      CLOUDY    56  53  90 W7        29.92R FOG
6HR MIN TEMP:  54; 6HR MAX TEMP:  56; 6HR PCP:  0.06;

FRANKFORT      CLOUDY    57  53  86 W7        29.91R FOG
6HR MIN TEMP:  53; 6HR MAX TEMP:  57; 6HR PCP: TRACE;

LOUISVILLE     DRIZZLE   57  54  89 W7        29.93R FOG
6HR MIN TEMP:  57; 6HR MAX TEMP:  58; 6HR PCP: TRACE;

LEBANON*       CLOUDY    55  55 100 W5        29.94R FOG
GLASGOW*       CLOUDY    55  55 100 CALM      29.95R
BOWLING GREEN  CLOUDY    56  53  90 SW5       29.95R
6HR MIN TEMP:  54; 6HR MAX TEMP:  58;

$$

KYZ091>093-OHZ055-061-077-WVZ005-015-034-035-042-281300
...SOUTHERN OHIO/WEST VIRGINIA...

CITY           SKY/WX    TMP DP  RH WIND       PRES   REMARKS
COVINGTON      CLOUDY    56  55  97 W9        29.90R FOG
COLUMBUS       CLOUDY    56  55  97 N7        29.87R FOG
DAYTON         LGT RAIN  53  52  96 N14       29.92R FOG
WILMINGTON     CLOUDY    55  54  96 W7        29.88R
HUNTINGTON     CLOUDY    56  54  93 CALM      29.89R
CHARLESTON     RAIN      55  54  96 CALM      29.89R VSB 1/2
PINEVILLE*     CLOUDY    54  51  91 MISG      29.95S FOG
BECKLEY        CLOUDY    53  51  93 SW6       29.92R
BLUEFIELD      LGT RAIN  52  49  89 W5        29.93R
LOGAN CO APT*  FOG       55  55 100 SW3       29.90R VSB 1
$$

VAZ002-007-008-TNZ017-027-036-066-071-281300
...SOUTHWEST VIRGINIA/EAST TENNESSEE...

CITY           SKY/WX    TMP DP  RH WIND       PRES   REMARKS
WISE*          CLOUDY    54  54 100 W7        29.95R
JONESVILLE*    CLOUDY    55  55 100 CALM      29.96R
ABINGDON*      CLOUDY    56  56 100 CALM      29.94R FOG
BRISTOL        CLOUDY    57  55  93 NW3       29.94R
MORRISTOWN*    CLOUDY    57  55  94 W10       29.93R
SEVIERVILLE*   MOSUNNY   54  52  94 CALM      29.94R
KNOXVILLE      CLOUDY    57  55  93 W10       29.94R FOG
LAFOLLETTE*    CLOUDY    55  54  94 CALM      29.97R
OAK RIDGE      CLOUDY    58  56  93 VRB6      29.96R
CROSSVILLE     CLOUDY    54  54 100 W7        29.96R FOG
NASHVILLE      CLOUDY    56  54  93 NW7       29.97R
$$

...KEY TO REMARKS...
VSB - VISIBILITY IN MILES
WCI - WIND CHILL INDEX
HX  - HEAT INDEX

$$



USA.gov is the U.S. government's official web portal to all federal, state and local government web resources and services.